Tracking 28052 objects as of 22-Sep-2023
HD Live streaming from Space Station
objects crossing your sky now

OBJECT R

Track OBJECT R now!
10-day predictions


NORAD ID: 53459
Int'l Code: 2022-098R
Perigee: 496.0 km
Apogee: 503.7 km
Inclination: 97.5 °
Period: 94.5 minutes
Semi major axis: 6870 km
RCS: Unknown
Launch date: August 10, 2022
Source: People's Republic of China (PRC)
Launch site: Taiyaun Space Center, China (TSC)

Note: This is SATELLITE DEBRIS
Your satellite tracking list
Your tracking list is empty




NASA's NSSDC Master Catalog

Two Line Element Set (TLE):
1 53459U 22098R   23265.02251547  .00029762  00000-0  12144-2 0  9991
2 53459  97.5250   3.2000 0005618 312.3978  47.6783 15.24360204 61799
Source of the keplerian elements: AFSPC